RH
48 52 57 64 66 66 69 78 76 64 61 51 37 34 32 30 30 31 33 30 30 30 26 27 28 31 33 37 43 44 47 50 56 53 66 83 81 77 76 78 77 77 81 86 92 91 90 92 89 86 87 92 97 95 92 88 88 96 93 85 82 80 81 74 66 63 63 65 67 67 68 69 70 71 74 73 69 66 64 64 67 70 72 73 74 76 76 73 72 73 75 76 77 78 81 82 83
60 60 61 63 63 72 69 64 68 61 59 55 40 32 29 31 37 36 32 29 30 27 24 26 26 28 29 31 34 41 50 48 52 56 64 72 76 77 76 79 75 75 80 85 91 92 92 92 89 85 85 88 95 94 89 93 95 93 85 83 84 83 83 79 72 65 63 65 65 67 69 70 70 71 72 69 64 62 63 67 69 71 72 74 78 81 80 77 77 78 80 82 84 83 83 86 87
63 59 58 58 59 64 61 57 58 55 59 55 38 30 30 39 45 35 29 29 27 25 24 25 27 28 27 33 36 44 51 47 51 58 62 64 68 74 76 78 77 78 80 82 86 90 93 90 88 85 84 88 92 92 92 96 91 82 78 79 82 84 84 82 77 69 67 67 67 70 70 70 70 71 69 64 61 59 63 69 72 73 72 74 78 81 81 81 81 81 80 80 82 83 85 85 85
55 55 57 54 58 58 59 61 46 36 42 45 39 35 34 34 35 30 27 27 24 25 25 27 31 29 29 37 38 41 48 48 51 55 60 61 64 73 76 77 80 78 76 80 82 88 93 90 90 87 87 91 91 91 91 91 86 79 77 75 77 81 84 82 77 72 71 71 71 71 69 69 69 70 66 60 57 58 65 71 74 73 72 72 74 76 77 79 79 78 75 75 77 79 82 82 81
52 51 51 51 63 55 48 43 27 25 29 34 36 32 32 27 27 29 26 26 24 25 24 26 30 29 31 34 34 40 49 52 50 51 57 61 64 71 75 76 76 74 75 79 80 86 92 92 93 90 89 89 90 88 84 84 85 83 79 77 74 75 81 81 76 73 73 73 71 68 67 68 69 68 63 59 56 60 68 73 73 69 68 68 69 69 71 76 73 70 73 77 80 81 84 84 80
50 42 42 47 55 44 36 25 15 22 20 22 29 27 28 26 27 28 27 27 24 24 24 25 28 31 37 36 34 38 44 49 50 53 56 61 63 66 73 74 72 72 75 79 80 87 94 93 93 92 89 88 86 81 78 81 82 80 76 76 74 74 80 81 76 74 75 74 70 67 66 68 69 66 63 63 63 66 71 73 71 67 66 67 67 66 69 75 70 70 78 81 85 85 84 85 81
45 41 41 42 44 39 33 19 13 20 17 18 23 25 25 25 26 27 28 27 26 25 24 25 25 31 38 37 38 38 40 45 50 56 57 60 61 61 67 72 75 75 75 77 81 89 91 94 96 91 88 88 85 80 78 79 76 76 75 74 75 78 82 82 78 76 75 71 69 68 67 68 68 66 65 67 68 70 73 73 70 66 66 67 65 64 69 75 74 80 85 81 85 84 80 82 81
43 42 38 37 37 32 23 13 15 18 17 19 18 23 25 25 25 26 28 27 28 25 24 25 24 32 36 35 43 42 41 45 50 57 56 58 60 59 60 64 72 74 74 77 82 87 86 92 96 92 92 93 92 85 78 75 73 75 76 75 79 84 84 80 77 75 72 68 69 69 68 69 69 69 68 69 70 70 72 72 69 66 67 65 62 67 72 71 73 79 81 81 84 83 78 78 79
39 38 33 34 30 18 14 13 16 16 17 18 18 22 23 24 24 26 28 27 27 25 25 23 23 33 38 39 46 42 42 47 49 53 55 61 63 61 62 60 63 66 69 75 82 88 88 89 91 95 96 90 87 81 75 73 73 77 78 77 83 86 81 77 75 72 69 67 68 70 69 70 70 69 68 69 70 71 73 70 68 68 66 62 63 71 70 65 67 69 73 79 81 79 76 74 76
35 36 31 28 23 14 14 14 14 16 17 16 18 21 21 23 25 26 27 27 26 25 24 22 25 33 37 42 46 41 44 49 48 50 54 61 64 63 64 60 60 63 68 74 80 88 90 87 86 92 89 79 74 72 72 72 73 77 76 78 84 82 77 74 72 70 68 66 67 69 70 71 70 68 69 71 72 73 73 69 69 68 64 63 68 69 62 63 68 68 70 73 74 76 77 78 77
35 35 31 22 18 17 15 15 15 16 16 16 18 19 20 21 24 26 26 27 27 25 25 25 29 31 36 43 45 43 46 48 48 50 52 57 62 64 63 59 62 67 69 72 80 87 88 85 84 86 82 78 74 71 73 75 75 76 75 79 82 77 74 71 69 68 66 65 66 68 70 70 71 69 70 72 73 74 72 70 68 66 64 65 69 65 63 69 72 71 70 71 72 74 77 80 80
38 33 30 22 17 17 15 15 15 15 16 16 18 18 19 19 23 26 26 28 27 26 24 25 28 29 39 46 45 43 45 47 47 50 52 52 55 60 59 56 61 69 71 71 80 87 87 85 84 85 83 81 77 74 76 79 79 78 79 79 77 74 71 70 69 69 67 67 68 69 70 70 70 70 71 74 74 74 72 69 68 74 75 72 73 71 71 73 73 72 70 73 75 77 80 82 81
34 33 33 23 16 17 15 16 15 16 16 15 17 17 17 19 21 23 26 28 27 27 25 23 24 27 38 43 42 41 42 45 48 50 51 50 50 53 54 54 58 67 73 75 79 84 88 87 86 87 82 79 79 79 81 82 82 81 80 77 75 75 73 73 72 71 71 71 71 71 72 71 71 70 73 74 72 74 72 69 76 85 87 85 88 87 80 74 73 73 71 75 77 81 83 83 84
29 32 29 20 16 18 16 17 17 16 16 16 16 17 17 19 19 20 24 27 27 26 25 21 21 29 39 43 43 39 40 45 48 50 50 50 49 50 52 55 57 62 69 73 77 82 87 86 89 88 81 82 81 79 83 83 84 83 81 80 80 80 79 78 75 75 75 76 75 72 73 74 73 72 73 72 72 73 68 68 73 79 88 90 87 85 80 74 72 72 71 72 74 78 81 82 82
25 26 21 23 21 16 18 19 18 17 17 16 16 17 17 17 17 19 21 25 27 23 22 20 20 30 37 41 43 37 39 46 46 49 51 50 49 51 53 55 58 63 69 70 72 78 81 80 86 88 84 86 83 81 83 82 85 85 83 83 81 81 80 79 78 77 77 78 76 72 73 72 72 73 71 71 70 68 67 76 77 74 81 77 69 69 71 73 71 70 68 68 72 74 77 77 76
19 20 19 32 27 15 18 17 18 18 17 16 16 17 17 18 18 19 19 21 25 21 21 22 21 27 29 30 36 36 40 45 46 49 50 51 52 54 56 56 58 68 75 73 72 76 76 78 83 86 87 87 86 86 84 82 83 83 82 80 78 78 77 78 78 78 77 76 73 70 69 70 76 74 70 73 69 66 70 82 86 76 69 61 62 67 67 70 69 68 68 68 71 71 73 72 72
18 19 19 36 29 16 18 16 19 19 16 17 17 17 18 20 18 19 19 19 23 21 21 22 21 22 22 25 32 38 42 45 47 49 50 53 55 54 57 58 59 69 77 77 77 78 78 81 83 85 88 87 86 84 85 85 76 75 77 72 72 73 72 73 73 73 72 71 69 65 66 76 86 80 74 78 76 74 73 73 73 67 62 63 68 69 67 67 66 68 69 70 71 69 73 71 74
20 19 28 53 33 12 17 15 16 16 17 18 17 17 17 20 19 19 19 20 22 22 23 22 21 21 21 27 34 40 43 45 47 48 52 54 53 52 54 57 59 65 74 79 81 79 78 82 83 85 86 85 84 79 83 84 70 73 79 72 70 69 67 68 70 74 77 76 70 67 73 82 85 82 82 83 83 83 81 76 68 61 61 64 66 65 63 64 67 70 71 73 71 69 73 73 77
20 18 34 54 26 9 16 13 14 16 18 18 17 17 16 19 18 18 20 21 21 22 25 22 23 25 25 31 37 41 42 44 46 47 50 51 49 50 52 54 57 59 66 76 81 79 79 82 81 81 80 80 81 76 80 82 73 80 86 81 78 75 71 71 78 82 84 84 79 77 78 80 80 84 86 80 81 82 78 77 69 63 63 65 69 67 65 71 74 71 71 72 70 73 76 73 73
18 17 33 38 14 11 15 11 15 15 17 18 17 17 16 17 16 17 19 20 20 22 24 24 27 29 30 33 36 40 41 43 44 45 47 48 48 48 50 51 54 57 58 66 75 77 77 77 75 74 77 79 78 75 77 77 76 82 83 81 81 81 80 78 85 83 82 86 84 81 75 77 79 80 82 71 69 72 72 74 70 70 71 77 80 72 73 80 76 71 76 74 69 76 76 70 70
15 15 34 34 13 13 13 11 14 12 16 17 18 18 17 16 14 16 17 18 19 20 21 22 27 30 32 33 34 38 39 41 41 41 43 45 46 44 48 49 51 55 55 58 66 70 70 70 70 72 77 79 75 72 73 72 73 78 77 76 75 77 79 76 82 80 81 85 82 78 73 76 76 73 77 72 68 71 72 72 71 73 75 81 80 74 78 77 72 75 80 76 70 72 69 67 69
14 14 27 28 12 13 13 11 12 13 15 16 18 19 17 16 14 15 16 18 17 16 17 19 24 27 31 32 33 35 35 37 37 37 39 41 43 42 45 47 48 52 53 55 60 64 66 67 69 72 76 77 74 68 67 69 71 73 71 71 70 73 75 71 74 74 76 81 76 73 70 72 72 68 71 72 72 72 69 67 68 72 73 78 77 75 77 71 70 73 72 73 71 68 65 66 68
12 13 16 16 12 13 12 10 12 12 14 17 19 18 17 18 16 15 16 17 14 13 15 17 21 25 28 30 31 33 33 35 33 34 36 37 39 39 42 45 47 51 52 54 58 63 65 65 68 71 73 75 73 67 63 68 72 70 67 69 69 69 70 69 70 67 69 76 73 69 67 66 65 64 66 69 71 69 66 65 67 72 71 73 75 73 71 69 70 69 68 71 69 65 66 69 70
10 12 12 12 12 12 11 10 10 11 14 16 16 17 18 19 19 17 16 15 13 12 14 16 21 24 26 28 29 30 32 32 31 33 34 34 36 36 38 41 45 49 50 53 57 61 63 64 67 69 71 73 72 69 65 66 69 68 65 67 67 65 66 66 65 63 67 72 71 69 67 63 61 61 63 65 68 68 68 69 69 71 70 70 74 71 67 68 68 67 68 68 69 68 67 70 71
7 10 11 11 11 11 10 9 9 11 13 14 15 17 18 18 18 17 16 15 13 13 15 17 21 23 25 27 27 28 31 30 29 32 33 33 34 34 35 38 42 47 49 51 54 58 61 64 67 67 69 72 71 70 67 64 66 66 65 65 64 64 64 60 60 61 64 67 68 71 68 64 61 60 60 63 67 69 72 73 71 71 71 70 72 71 69 70 69 67 68 67 71 71 69 70 70
6 8 9 10 11 10 10 9 9 11 12 14 16 17 18 17 16 18 17 14 13 13 16 18 21 23 24 26 26 27 30 29 28 30 31 32 33 34 35 36 39 44 48 50 52 54 58 62 66 66 68 71 70 69 67 64 65 65 65 64 61 64 62 59 60 59 59 60 64 70 71 67 65 61 61 67 69 72 77 76 74 74 73 71 70 72 71 71 71 71 72 71 71 72 72 72 69
5 7 8 9 10 9 9 9 9 10 12 13 15 17 17 15 17 19 17 15 14 14 17 19 20 22 22 24 24 27 30 27 27 28 29 31 32 33 34 36 38 41 45 48 51 53 57 61 64 66 69 72 70 67 66 64 65 65 66 65 63 63 60 59 61 58 57 57 61 72 74 72 71 66 68 74 73 74 79 79 79 77 75 74 71 73 73 72 73 74 78 79 78 76 75 73 72
5 7 8 9 10 9 9 9 10 10 12 13 13 16 16 16 18 17 17 17 15 15 18 19 21 22 22 23 24 28 30 26 27 27 28 30 32 34 34 36 38 39 44 46 49 53 57 59 61 65 69 72 72 67 65 66 67 67 67 66 65 65 63 62 59 57 58 58 64 75 78 78 79 75 79 81 75 75 81 82 81 78 76 74 73 79 82 80 78 79 83 87 84 79 73 69 67
5 7 8 9 9 10 9 9 10 10 12 13 13 17 18 19 18 16 16 18 17 16 18 20 21 22 23 23 24 29 30 27 28 28 28 30 32 35 35 37 37 39 42 45 47 49 52 53 56 62 67 73 75 69 66 68 69 69 69 66 66 68 68 64 60 59 61 62 69 78 83 87 85 82 88 87 77 77 82 83 82 79 76 75 77 83 84 81 79 79 82 80 75 69 61 56 54
6 7 8 9 10 11 10 9 10 10 13 13 14 21 22 19 18 15 16 18 18 19 19 19 20 21 23 23 25 30 31 29 29 28 29 31 34 35 35 37 37 38 41 44 47 47 48 48 51 56 63 70 76 73 69 70 70 70 68 66 67 69 68 65 62 63 64 65 70 79 88 90 88 87 91 91 85 80 79 80 81 78 77 80 84 84 81 78 74 73 72 66 62 58 53 50 49
7 8 8 9 11 12 9 9 11 11 14 13 14 23 22 17 17 15 16 18 18 20 20 19 20 21 23 23 26 31 31 31 30 29 30 31 33 34 35 36 37 38 40 44 47 49 49 49 50 53 59 66 71 74 73 71 71 69 66 64 66 69 67 64 63 62 65 68 68 76 88 92 91 91 91 93 90 82 78 79 81 80 80 83 84 83 80 75 70 67 64 61 58 54 51 48 47
7 9 10 10 11 12 10 10 11 12 15 14 15 22 20 14 15 15 17 18 18 20 21 20 20 20 22 23 25 28 30 31 31 30 30 31 32 33 33 35 35 36 39 44 48 52 53 52 53 53 58 63 67 72 72 70 71 70 67 65 65 69 67 64 63 60 61 66 67 71 84 94 95 92 91 92 90 82 77 77 80 82 84 85 86 82 74 67 63 61 59 57 55 55 53 48 48
8 10 11 11 11 11 12 11 10 12 15 15 16 19 17 14 14 15 17 18 18 20 21 21 21 20 22 23 24 27 28 31 31 30 29 30 32 32 32 33 35 36 40 45 49 54 56 56 58 56 58 63 65 70 71 69 71 73 72 69 68 70 68 64 62 61 59 62 67 69 77 88 95 96 94 90 87 83 77 76 77 78 85 87 84 75 63 58 57 55 55 55 54 55 52 48 49
9 10 11 11 11 11 13 14 11 11 15 17 17 17 16 14 14 15 17 18 18 20 21 21 21 21 23 23 23 25 27 31 33 31 30 31 32 32 33 34 35 36 40 46 51 57 58 58 62 61 58 63 66 69 71 69 71 74 75 73 72 73 70 65 61 60 60 61 65 70 76 83 93 99 95 85 84 85 80 79 78 79 86 83 73 66 56 54 57 55 54 55 55 55 51 48 48
10 10 11 12 12 11 12 14 13 12 15 18 18 18 17 15 15 17 18 17 18 19 20 21 21 23 24 24 24 24 26 30 33 32 30 31 32 33 35 35 37 38 40 46 52 59 61 60 65 65 61 63 67 71 74 72 71 76 77 74 74 73 70 66 62 60 62 65 67 72 80 88 92 95 93 86 85 87 83 81 84 84 82 75 67 62 54 51 57 58 55 55 59 59 56 53 53
9 9 10 12 12 12 11 12 12 12 15 18 18 18 17 17 18 19 18 18 19 19 19 20 21 23 24 25 24 24 26 28 31 32 30 32 33 34 37 37 38 40 41 46 53 61 64 62 64 68 66 64 67 73 76 73 71 73 74 72 71 72 70 66 64 63 63 67 69 74 84 91 91 91 89 87 87 88 85 83 83 81 74 69 68 62 54 53 56 57 56 58 62 63 62 60 60
7 8 10 11 12 12 10 10 11 12 15 16 17 17 17 17 18 20 20 19 20 20 20 20 21 23 24 26 25 25 26 25 28 30 30 31 34 36 39 39 40 42 43 47 54 61 65 63 63 69 70 66 67 72 74 72 69 69 69 68 66 68 69 67 66 66 65 67 71 78 84 88 93 93 86 86 89 88 89 88 80 75 69 66 68 64 59 59 59 57 58 62 64 67 69 64 63
7 8 9 10 12 11 9 9 10 11 14 16 16 16 17 16 16 18 20 21 20 20 20 21 21 22 24 26 27 27 26 24 25 29 30 30 33 37 40 42 42 43 45 48 54 60 64 64 63 68 71 68 67 70 73 71 67 65 65 65 63 61 63 65 65 65 66 67 73 84 87 86 92 95 86 84 89 89 88 85 76 72 69 65 69 69 64 63 59 56 61 65 66 68 68 63 64
7 8 8 10 11 10 10 8 9 11 13 16 16 16 17 16 15 16 18 21 21 20 20 21 21 23 24 25 27 28 28 27 26 28 29 29 32 36 40 43 43 45 47 49 54 59 63 65 63 66 70 70 68 68 71 71 67 64 64 64 62 57 57 60 62 63 66 65 70 84 91 91 94 95 90 87 92 93 86 78 73 72 71 68 71 72 66 61 58 56 61 65 64 62 61 61 65
7 7 8 10 10 10 10 8 9 11 13 15 16 16 17 16 16 16 16 18 20 20 19 19 20 23 24 23 25 27 29 30 29 27 28 29 31 34 39 43 44 45 47 50 54 59 64 67 66 66 68 70 69 68 70 70 68 68 67 66 64 59 56 57 59 61 63 64 68 80 89 93 93 92 92 91 92 91 83 74 71 71 72 72 74 75 66 56 56 58 59 62 61 56 50 52 59
7 7 7 9 9 9 9 9 11 13 13 14 15 19 19 17 18 17 16 17 20 20 20 20 20 22 23 23 24 26 27 30 30 29 29 30 31 34 38 43 45 45 47 50 55 59 65 69 68 66 68 70 70 69 71 70 70 72 72 71 69 66 62 59 60 61 62 64 66 72 79 83 83 81 84 85 83 80 77 74 71 69 70 74 75 70 61 54 54 55 56 59 59 56 49 46 53
7 7 7 7 8 8 8 9 12 15 17 14 16 25 26 19 19 19 17 17 19 21 22 22 22 22 24 24 24 26 26 28 29 30 30 31 32 34 38 43 46 46 48 51 54 58 63 67 69 69 68 70 70 70 73 73 72 74 76 75 71 69 68 64 64 63 61 62 62 61 65 71 74 74 74 75 73 70 72 74 72 70 69 72 73 66 59 57 55 53 56 58 56 59 59 50 50
7 6 6 6 7 8 8 8 11 16 19 15 15 24 27 21 19 19 18 18 19 21 22 22 22 23 23 24 25 25 26 26 28 30 30 31 32 33 36 42 45 46 47 49 52 56 60 65 69 71 71 71 70 71 74 76 75 76 76 74 70 68 67 66 66 65 59 57 56 54 56 63 70 71 68 68 69 68 71 73 72 72 68 66 68 66 60 54 52 54 57 59 59 61 62 54 48
6 6 6 7 7 7 7 8 10 13 15 16 15 18 25 24 20 18 17 18 19 20 22 22 22 23 23 24 24 24 26 25 27 31 32 32 33 33 35 40 44 45 46 48 51 54 59 64 68 72 73 72 70 70 74 78 77 75 75 73 70 67 65 64 65 66 63 58 55 55 55 59 66 70 66 65 69 69 70 71 71 69 65 62 62 62 58 53 55 60 61 63 65 63 61 58 52
6 5 5 6 7 7 7 8 9 10 14 19 17 16 25 27 20 16 16 17 19 19 21 23 22 22 23 24 23 23 25 25 26 30 33 33 32 32 33 37 43 44 45 47 49 52 57 63 68 73 74 71 71 71 73 78 78 75 74 73 70 68 65 62 60 61 63 62 60 59 61 61 64 71 70 67 69 69 68 68 68 66 62 60 60 57 55 57 61 64 65 66 65 60 61 62 57
4 4 5 5 6 6 7 8 9 11 16 20 17 15 24 27 20 17 17 18 19 17 17 20 22 22 23 25 25 24 25 26 26 28 32 33 31 31 33 36 41 44 44 46 48 51 55 62 69 73 74 71 70 73 74 77 78 75 73 72 71 69 68 64 59 58 61 65 65 63 65 67 65 67 68 67 66 66 67 65 63 63 61 60 60 57 56 60 64 65 64 65 64 62 62 62 60
4 4 5 5 5 6 7 9 10 14 18 18 15 13 19 25 21 16 17 17 17 17 17 18 21 22 23 25 25 24 25 26 26 27 30 33 32 31 32 35 40 43 43 44 47 50 53 61 69 73 74 72 69 72 75 75 76 75 72 72 71 70 70 68 64 61 61 65 68 66 65 66 64 62 61 61 62 64 66 63 59 60 63 62 62 62 59 59 61 63 64 66 68 67 65 64 65
3 4 6 7 8 9 9 10 11 16 19 15 12 12 15 22 20 15 15 14 14 16 16 16 18 20 22 22 23 25 26 26 27 27 28 32 34 32 32 34 39 43 43 43 46 49 52 59 67 72 73 72 70 72 75 75 73 73 72 71 72 72 71 69 68 65 63 64 67 66 62 61 61 60 59 59 61 62 65 64 60 59 62 64 64 64 60 57 56 58 63 66 68 70 69 67 69
3 4 6 9 12 13 14 14 13 15 16 12 10 12 15 18 16 13 13 12 12 14 14 13 13 16 20 22 24 28 27 24 26 28 28 31 34 33 33 35 39 44 44 42 45 48 52 58 65 71 73 73 72 72 75 76 72 71 72 71 71 73 72 71 70 67 64 64 66 65 60 59 60 60 60 62 62 61 64 67 63 61 63 65 67 65 60 60 59 57 61 63 64 68 68 67 69
4 5 7 10 13 17 18 16 14 14 13 10 8 12 16 16 14 13 13 11 11 11 12 12 11 12 15 20 26 28 25 22 25 28 28 30 34 34 34 35 40 45 44 42 44 47 51 57 64 69 73 75 75 73 74 76 74 72 72 72 71 71 73 74 71 68 65 64 66 65 61 59 60 61 63 64 63 60 63 68 66 63 66 68 69 66 60 62 64 61 60 61 62 65 67 66 65
3 3 5 9 12 15 17 15 14 15 12 10 10 14 18 17 14 12 11 11 10 10 11 11 11 10 11 17 23 24 21 20 24 28 29 29 32 34 34 35 39 43 44 42 43 46 50 55 62 68 72 76 77 76 74 75 74 73 72 73 72 71 73 74 72 69 66 65 66 65 63 61 59 62 64 63 64 62 62 67 67 64 68 70 71 68 62 62 65 63 62 62 62 64 66 66 63
4 3 5 8 9 11 13 12 13 13 13 12 11 13 13 13 12 10 10 11 10 10 10 10 10 10 9 13 20 23 21 20 24 28 29 29 31 33 34 35 38 41 43 42 42 47 49 52 61 68 71 75 77 77 76 75 75 73 73 73 72 72 73 74 73 72 69 68 68 66 66 65 62 62 63 62 64 63 62 66 66 65 68 70 70 69 63 61 64 65 65 65 63 63 64 64 63
4 5 6 6 6 8 10 12 12 12 13 13 11 11 10 10 11 10 11 11 10 11 10 9 9 9 8 9 14 18 20 22 24 27 30 31 31 33 34 34 36 39 42 43 44 48 49 51 60 67 70 73 77 77 76 75 75 74 74 74 72 72 74 74 72 72 71 69 69 70 69 68 67 65 62 62 65 65 64 66 66 66 68 69 68 68 66 62 63 64 64 63 62 62 62 64 65
3 4 4 4 4 5 9 13 13 13 16 14 10 10 11 12 12 11 12 12 12 12 10 9 9 8 8 10 11 14 18 22 25 27 31 32 31 33 35 34 35 39 43 45 47 50 50 52 60 66 69 71 75 76 75 75 75 74 74 75 73 72 73 73 70 70 72 70 70 72 70 69 71 67 62 62 65 67 67 66 67 68 68 69 67 66 67 66 64 64 63 62 63 63 64 65 67
2 3 2 3 6 7 9 12 13 15 16 14 12 11 10 11 12 13 13 13 13 13 11 10 8 7 8 10 13 17 20 23 25 26 29 31 32 34 34 34 35 39 44 46 48 52 52 54 59 63 66 69 71 73 73 75 75 73 73 74 75 74 73 73 71 69 72 72 70 71 70 69 71 67 63 64 66 67 68 67 68 69 68 70 69 66 67 68 67 67 66 63 64 66 67 66 66
2 2 2 3 5 7 8 9 11 14 15 15 14 12 10 9 10 12 13 12 12 12 12 10 8 8 8 8 12 16 19 23 24 25 28 30 31 32 33 33 34 38 43 45 48 50 50 52 57 60 63 67 69 70 72 75 74 71 72 73 75 76 74 74 73 70 72 73 72 72 70 68 69 67 65 67 67 65 66 66 66 67 67 70 70 69 70 71 69 68 68 66 63 64 67 66 64
3 2 3 4 5 5 6 7 9 11 13 15 15 14 12 9 7 9 11 10 10 10 11 10 8 7 7 8 10 12 17 23 24 24 26 28 29 30 32 33 32 35 42 43 44 46 45 47 53 56 60 63 64 67 71 73 73 72 72 73 75 76 76 75 74 73 74 76 75 74 72 68 68 69 68 70 68 62 63 65 65 65 67 68 69 70 73 74 70 68 70 70 65 62 65 66 64
3 2 2 3 4 5 7 9 7 7 11 13 15 15 12 8 7 7 8 9 9 9 9 8 8 7 7 7 8 10 15 21 24 24 24 26 29 29 30 32 31 33 39 40 40 41 40 42 48 52 55 57 58 62 68 71 72 72 72 72 73 75 76 75 74 74 75 76 76 74 73 70 69 70 71 72 68 61 63 66 65 67 68 68 71 73 74 75 74 73 73 72 67 65 67 67 65
Wind_Speed
16 15 15 15 12 6 4 3 1 1 2 1 4 6 8 10 10 10 9 9 8 9 8 9 10 9 9 11 14 15 12 10 7 3 6 8 12 14 15 17 16 15 16 17 18 19 19 19 20 20 21 21 20 20 21 20 19 19 19 20 20 20 19 19 18 17 17 16 15 15 15 14 14 14 14 14 14 14 14 14 14 15 15 14 13 13 13 12 12 12 12 12 12 12 11 11 11
17 16 15 13 10 3 1 2 1 1 1 3 4 5 9 12 10 6 9 10 9 10 10 10 11 12 12 11 12 15 15 15 14 11 11 17 18 15 16 17 16 16 17 18 18 18 19 20 20 20 20 21 21 20 21 19 18 19 20 20 19 18 17 17 16 15 15 15 15 14 14 14 14 14 14 14 14 13 12 13 13 14 14 13 13 12 12 11 11 12 12 12 11 11 11 10 10
18 15 12 10 8 5 2 3 3 1 3 4 4 6 9 12 8 5 12 13 11 11 10 11 10 8 11 12 12 14 13 14 17 13 11 17 16 15 18 16 17 16 17 18 18 18 19 20 20 19 19 19 20 20 20 18 18 19 19 19 19 18 17 16 15 15 14 14 14 14 13 13 14 13 13 13 12 12 11 12 12 13 13 12 12 11 11 11 11 11 11 10 10 10 10 9 9
15 11 11 8 5 5 3 4 5 2 5 3 5 9 9 10 12 10 14 12 10 10 9 11 9 8 11 14 13 13 13 13 14 12 10 14 15 19 20 18 18 16 17 17 17 18 19 21 20 19 20 19 19 19 18 18 18 18 18 18 19 18 17 15 14 14 14 14 13 13 13 13 13 13 12 12 11 10 10 11 12 12 12 11 11 10 11 10 10 10 9 9 9 9 9 8 8
11 10 11 7 1 4 4 4 2 4 5 4 4 10 10 9 13 13 12 11 9 9 8 8 8 10 12 12 9 9 12 11 13 14 14 16 19 22 20 19 18 16 17 17 17 18 20 23 21 20 20 20 19 18 18 18 18 18 18 18 17 18 16 15 14 15 14 14 13 13 13 13 12 12 11 10 10 10 10 10 11 11 10 10 10 10 10 10 9 8 8 9 9 9 8 7 7
11 10 10 7 3 6 5 2 4 6 6 6 5 8 11 10 12 12 11 10 9 8 7 8 11 13 11 12 10 9 10 10 13 14 17 20 19 21 21 19 18 18 18 17 18 18 20 22 22 20 19 19 18 19 18 17 18 18 18 17 17 17 16 14 14 14 13 13 13 12 12 12 11 11 10 9 9 9 9 9 10 9 9 9 9 9 9 9 8 8 8 8 8 8 8 7 8
9 5 5 6 5 7 4 3 6 6 7 8 7 8 10 11 11 11 11 10 9 8 8 9 11 12 10 10 10 12 12 12 14 15 18 22 20 20 21 21 20 20 19 18 19 19 20 20 20 21 19 18 17 18 17 17 17 17 17 17 17 16 15 14 14 14 13 12 12 12 12 11 10 10 9 8 8 8 8 9 9 8 8 8 8 8 8 7 7 7 7 7 8 8 8 8 8
7 5 3 5 5 5 2 5 7 6 7 9 9 9 9 11 9 9 9 8 8 8 9 10 10 11 12 12 10 12 14 15 19 21 22 23 20 19 19 21 22 22 20 19 20 20 21 20 20 20 19 18 16 16 17 16 16 17 16 16 16 15 14 14 14 13 12 12 11 11 11 10 9 8 8 8 8 7 7 8 8 7 7 7 7 6 6 5 5 5 6 7 7 8 8 8 8
6 5 4 6 6 2 3 6 7 7 9 9 9 9 8 8 7 7 8 7 8 9 10 10 9 11 13 15 12 10 14 18 22 23 22 21 20 18 18 19 21 23 21 20 20 20 19 20 21 19 18 17 16 16 16 16 16 15 15 16 15 14 14 14 13 12 12 11 11 10 10 9 8 7 7 7 7 7 7 7 7 6 6 6 5 5 4 3 3 4 5 6 7 8 8 9 9
3 4 6 6 4 1 4 5 6 8 9 9 9 8 7 6 5 6 7 9 8 8 10 9 9 13 14 14 11 10 14 19 21 21 21 21 20 19 18 18 20 22 21 21 20 19 19 20 20 18 17 17 16 17 17 17 16 15 15 15 14 13 13 13 13 12 11 11 10 9 9 8 7 6 6 6 6 6 6 6 6 5 4 4 4 3 3 3 3 4 5 6 7 8 9 9 9
1 3 7 5 1 2 4 5 6 7 8 9 9 7 6 6 6 5 7 9 7 8 10 8 12 15 15 13 9 12 18 19 20 20 20 21 22 20 18 19 20 21 22 22 20 20 20 20 19 18 18 18 17 19 19 18 18 17 16 15 14 13 13 13 12 11 11 10 9 8 8 7 6 6 6 6 6 6 6 5 4 4 3 3 2 3 3 3 4 5 6 7 8 9 9 8 9
1 3 6 5 2 3 3 5 7 8 8 9 8 6 6 6 7 7 8 9 8 8 8 8 12 13 13 11 8 15 20 18 19 20 19 19 21 21 19 19 21 21 21 21 21 21 21 21 21 20 19 19 19 20 21 19 18 17 15 14 14 13 12 12 11 10 10 9 8 8 7 6 6 6 6 6 6 6 5 4 4 3 2 1 2 3 2 3 4 6 7 8 9 10 9 9 8
2 4 6 4 2 2 3 4 5 6 6 8 8 6 6 5 7 8 8 9 8 8 8 9 13 11 11 11 10 14 17 18 19 19 18 18 19 19 19 20 22 22 21 21 22 22 22 22 21 21 21 21 21 21 20 19 17 15 15 14 13 12 12 11 10 9 9 8 8 8 7 6 6 6 6 6 5 5 4 4 3 3 2 1 1 2 2 4 5 7 8 9 9 9 9 9 8
4 6 6 2 1 1 3 3 3 4 6 9 8 6 5 4 6 8 8 9 8 7 9 10 13 11 11 11 10 11 15 20 20 19 18 17 19 19 19 20 21 22 21 22 22 22 21 21 21 21 21 20 20 20 19 17 16 15 14 13 12 12 11 10 10 9 9 9 8 8 7 7 7 6 6 6 5 5 4 3 2 2 1 1 1 2 4 6 7 8 8 9 9 9 9 9 8
5 6 5 3 1 2 3 2 2 2 6 9 8 6 5 5 6 8 9 9 8 9 9 10 10 8 11 12 10 12 18 23 21 19 19 18 18 18 19 19 20 21 21 20 20 21 20 21 20 20 20 19 19 19 18 16 15 15 14 13 12 12 11 11 10 10 9 9 8 7 7 7 7 7 6 6 5 5 3 2 1 1 1 2 4 5 6 8 8 8 9 9 9 9 9 9 8
5 6 4 1 3 2 3 3 2 2 6 9 9 7 7 7 5 5 7 8 10 9 8 9 7 5 11 13 13 19 23 24 21 20 20 19 19 18 18 18 18 21 20 17 17 18 18 19 19 19 19 18 17 16 16 15 15 14 13 13 12 12 11 11 10 10 9 9 8 7 7 7 7 6 6 6 5 4 4 4 4 3 3 5 6 7 7 8 8 8 9 8 8 8 9 8 6
3 6 4 2 5 1 3 3 3 3 7 10 9 7 8 9 5 6 6 8 11 10 7 8 6 4 10 15 20 25 25 24 22 21 20 19 18 17 17 16 17 19 18 16 15 16 16 17 17 17 17 17 16 16 16 15 14 14 13 12 11 11 10 10 10 9 9 8 8 7 7 7 7 7 6 6 5 4 4 5 5 5 6 6 6 8 8 8 8 8 8 7 8 8 8 6 5
4 4 1 4 7 2 3 3 5 5 8 9 8 7 8 9 7 7 6 9 11 9 8 8 7 6 12 20 26 27 25 25 23 22 21 18 18 17 16 16 16 17 18 16 15 15 16 16 16 16 17 17 16 15 15 15 14 13 13 12 11 11 10 10 10 10 9 9 8 8 8 8 7 7 6 6 5 5 4 5 5 6 7 6 7 8 8 7 7 7 6 6 7 6 6 6 5
6 3 1 6 4 5 3 4 5 4 8 8 8 6 7 9 8 7 8 10 11 10 10 10 10 11 16 23 27 27 25 25 23 22 21 19 18 17 17 16 16 16 18 18 17 16 16 16 17 17 17 17 16 15 14 14 14 14 13 13 12 12 11 10 10 10 10 10 10 9 8 7 7 6 7 7 6 5 6 5 5 6 7 6 6 7 6 5 6 5 5 5 6 4 5 6 5
8 4 1 7 2 6 3 4 3 5 8 9 8 6 7 8 8 7 8 11 10 9 11 11 12 14 17 22 25 27 26 24 23 22 21 19 18 18 17 17 17 16 17 19 19 18 17 18 17 17 17 17 16 14 13 14 14 13 13 13 13 12 12 11 11 11 11 10 10 9 8 7 6 6 6 6 6 5 6 5 5 5 4 4 4 6 4 3 4 4 3 4 5 3 5 5 5
8 5 5 8 4 3 5 4 3 6 7 8 8 7 8 8 7 7 8 10 8 9 11 12 14 16 19 21 23 25 24 23 23 22 21 19 19 18 17 17 17 17 16 17 18 19 18 18 17 16 17 16 15 14 13 13 14 13 13 12 12 12 12 12 12 11 11 10 10 8 7 6 6 5 5 5 5 5 5 5 6 4 3 3 3 4 4 3 5 4 4 4 5 4 4 5 5
7 4 10 11 5 2 5 4 3 5 5 8 8 7 8 8 8 7 8 6 5 9 11 13 15 17 20 20 21 22 22 22 21 21 21 20 20 18 18 17 17 17 16 16 17 17 18 17 17 16 16 16 14 14 13 13 13 12 12 12 12 12 12 11 11 11 10 10 9 8 7 6 6 6 5 4 4 4 5 5 5 4 3 3 3 4 4 3 4 4 5 4 6 6 5 6 6
8 6 7 9 4 0 2 3 5 4 6 9 8 7 8 8 8 7 7 3 3 11 12 13 16 17 20 21 20 20 20 20 20 21 21 21 21 19 19 19 17 17 16 16 17 17 17 17 17 16 16 16 15 13 13 13 13 12 12 12 11 11 11 10 10 10 9 9 8 7 7 6 6 6 5 4 4 4 5 5 4 4 4 5 4 3 3 4 3 3 4 4 6 7 7 7 7
10 7 5 6 5 4 2 3 6 4 6 8 7 8 9 8 8 8 8 4 3 11 13 14 16 17 20 20 20 20 20 20 21 21 22 21 21 20 20 19 18 18 16 16 17 17 17 18 18 17 16 16 15 14 13 12 12 11 11 11 11 10 10 10 9 9 8 9 8 7 7 6 6 5 5 4 4 4 4 5 4 5 5 5 4 3 4 5 3 4 5 5 6 7 8 8 8
11 10 7 5 5 6 5 4 5 5 5 8 8 9 9 7 7 8 10 8 5 9 14 15 16 17 18 19 20 19 19 20 21 22 21 20 21 20 19 18 18 18 17 17 17 17 18 18 18 18 17 17 16 15 13 12 12 12 11 11 11 10 10 9 9 8 8 8 9 8 7 6 6 5 5 4 4 3 4 6 6 6 6 5 6 5 4 5 5 6 6 7 6 7 8 9 9
11 11 10 7 7 8 6 6 5 6 5 8 10 9 10 8 7 8 10 10 8 10 14 15 16 18 17 17 18 18 18 19 19 21 21 20 21 20 19 19 18 18 18 17 17 17 17 18 18 18 17 17 16 15 14 13 12 12 11 11 10 10 10 8 8 8 8 8 8 9 8 7 6 6 4 3 3 3 4 7 7 6 6 6 6 6 5 5 7 7 8 8 8 8 9 9 9
8 7 11 11 10 9 7 6 6 6 7 9 10 9 10 10 6 7 10 12 10 12 14 15 16 17 17 17 17 16 17 19 20 21 20 20 20 20 19 19 19 18 18 18 17 16 17 18 18 18 17 16 16 15 14 13 12 12 11 11 10 10 10 9 8 9 8 8 8 8 9 8 7 6 4 2 3 5 5 7 6 6 6 5 5 6 6 6 7 8 7 8 8 8 7 7 8
9 7 10 10 11 10 8 7 6 6 7 9 10 9 10 11 7 7 12 13 11 13 14 15 15 15 16 16 16 14 15 18 21 20 19 20 19 20 20 19 19 19 18 19 17 16 17 18 18 18 18 17 16 15 14 13 12 12 11 11 10 10 10 10 9 9 9 8 7 8 8 8 7 6 4 3 5 5 5 5 6 6 5 5 5 6 6 6 8 9 7 5 6 7 7 7 7
11 10 10 10 12 11 11 10 7 8 8 10 10 8 10 12 8 8 15 13 12 15 14 15 15 14 15 15 15 13 14 18 20 19 20 20 19 20 20 19 19 19 19 19 18 17 18 19 19 19 19 17 16 15 14 13 13 12 11 11 10 10 10 10 10 9 9 8 7 7 8 8 7 6 4 5 6 5 4 5 6 5 5 5 6 6 7 8 8 8 6 5 5 7 8 7 7
11 11 10 10 10 10 12 10 9 9 9 11 11 6 8 11 11 10 15 14 14 15 14 15 14 14 14 14 14 14 15 17 18 19 20 21 19 20 21 20 20 19 18 18 19 18 18 18 18 19 19 19 17 15 14 13 13 12 12 12 11 11 11 11 10 9 9 9 8 8 8 8 8 6 5 5 5 5 6 7 6 6 6 5 5 8 9 8 6 6 6 6 6 7 7 6 6
11 12 10 8 8 7 11 10 10 11 10 12 12 6 7 11 13 13 15 15 15 15 15 15 14 14 14 14 14 14 15 16 19 20 21 22 21 21 22 21 21 20 18 19 20 19 17 17 16 17 18 19 18 16 15 13 13 12 12 12 11 11 11 11 11 10 10 9 9 9 9 8 8 7 6 6 5 6 7 7 6 7 7 6 8 9 7 5 5 6 6 6 7 7 6 6 6
10 11 9 8 9 6 10 11 11 11 10 13 13 6 5 10 14 15 15 15 15 14 14 15 15 15 15 14 14 14 15 17 20 22 22 22 22 21 22 22 22 21 19 18 20 20 18 17 16 16 18 19 18 17 16 14 13 13 12 12 12 11 12 12 11 11 10 10 9 9 9 9 8 8 7 7 6 6 7 6 7 8 7 8 7 4 3 4 5 5 5 6 7 7 7 6 6
10 10 9 10 10 7 9 10 12 13 11 13 14 8 4 8 12 15 16 16 16 14 14 16 15 15 15 13 14 13 14 16 18 20 23 23 22 21 21 22 22 21 20 19 19 21 20 18 18 17 18 19 18 17 17 15 14 13 12 12 12 12 12 12 11 11 11 10 9 9 10 10 9 9 9 8 7 7 7 7 9 9 6 5 3 2 3 4 4 5 5 6 6 6 7 6 6
10 10 10 10 12 9 8 9 11 15 11 12 14 11 7 7 13 15 16 16 16 14 15 16 14 14 14 13 14 14 14 15 16 19 24 23 22 22 21 21 22 22 21 20 20 21 21 19 19 18 17 19 19 18 17 16 14 14 13 12 12 12 12 12 11 11 11 10 10 9 9 10 10 10 9 9 8 7 8 8 11 9 5 2 1 2 4 3 4 6 6 6 6 6 6 6 6
12 12 10 10 12 11 10 9 11 15 13 12 14 12 9 7 14 14 14 16 16 14 14 14 15 15 14 14 14 14 15 16 16 20 24 24 23 22 21 21 22 22 22 21 20 20 21 20 19 18 17 18 18 18 18 17 15 15 14 13 13 13 13 13 12 11 11 11 10 10 9 10 11 10 10 9 8 7 8 9 8 5 3 2 1 2 3 3 4 5 6 6 5 5 5 5 6
15 14 11 10 11 11 12 10 13 15 13 13 14 13 12 8 12 13 13 14 14 13 13 13 14 14 14 14 14 14 16 16 17 22 24 24 23 22 22 21 22 22 22 22 21 21 21 20 19 19 18 18 18 18 18 17 16 16 15 14 15 15 14 13 13 12 11 11 10 9 10 11 10 10 10 9 7 8 9 7 6 4 3 2 2 2 2 2 3 4 6 6 5 6 6 6 6
17 15 12 12 13 10 11 12 14 16 13 13 14 14 14 12 12 13 12 13 14 14 14 13 13 14 14 15 15 16 16 15 18 23 24 24 24 23 22 21 22 23 22 23 23 22 22 21 20 20 19 19 19 19 19 18 17 16 16 16 16 15 14 14 13 13 12 11 9 9 10 11 10 10 10 9 8 8 7 5 5 5 4 3 3 2 1 2 2 4 6 6 6 7 6 5 4
19 15 12 12 12 11 14 15 15 16 12 11 14 15 15 15 14 14 13 13 14 14 15 14 14 14 14 15 16 16 14 14 17 20 23 25 25 24 23 22 23 24 24 24 24 23 23 22 21 20 20 20 20 20 19 18 18 17 16 16 15 14 14 14 13 13 12 11 10 9 9 10 10 10 11 10 8 8 7 6 6 5 5 3 3 1 0 1 3 4 5 6 6 5 5 3 3
18 14 12 11 11 12 15 16 16 15 10 10 14 14 13 15 15 14 15 14 13 13 14 14 15 14 13 15 15 15 15 15 16 18 21 25 26 26 25 23 24 25 24 24 24 24 23 23 22 21 21 21 21 20 19 18 18 17 16 14 14 13 12 13 12 12 11 11 10 10 9 9 9 9 9 9 7 7 7 7 6 6 5 4 3 2 2 3 3 4 5 5 4 5 4 1 2
16 14 12 9 12 13 11 10 13 13 9 9 13 11 10 13 14 14 15 15 13 14 15 15 14 14 14 15 15 15 17 16 17 18 20 23 26 27 26 25 24 24 25 25 25 25 24 23 23 22 22 21 21 21 20 18 17 16 15 14 13 12 11 11 12 12 12 11 11 11 10 10 10 9 8 7 7 7 7 7 6 6 5 4 3 3 3 4 3 3 4 3 4 5 4 2 3
17 18 14 11 15 16 12 9 11 9 10 11 12 9 9 12 14 14 14 15 15 15 16 16 15 15 15 15 16 16 17 17 17 18 19 21 23 26 28 27 26 25 25 26 26 26 24 24 24 23 22 21 21 21 21 19 17 16 15 14 13 12 12 11 12 12 12 12 12 11 11 11 10 9 8 8 8 7 7 7 6 5 5 4 4 4 4 3 3 3 3 2 3 4 4 2 2
16 20 19 18 16 16 16 14 13 9 10 13 14 9 8 12 15 14 12 14 16 15 16 17 16 15 16 15 15 16 17 17 17 18 19 19 22 26 28 28 27 26 26 26 26 26 24 23 24 23 22 21 21 21 21 20 18 17 16 16 15 13 13 13 13 13 12 12 12 11 11 11 10 9 9 8 8 7 7 6 6 5 4 4 4 4 4 3 3 3 2 2 2 2 3 3 0
13 17 20 22 19 16 18 16 12 9 8 11 14 11 7 10 13 15 14 15 17 16 17 18 16 15 16 15 15 16 17 17 17 19 19 20 22 24 26 29 29 27 27 27 26 26 25 24 24 24 23 22 21 21 22 21 19 18 17 16 15 14 14 13 13 13 11 10 10 9 9 9 9 9 8 8 7 6 6 5 5 5 5 5 4 4 4 4 4 2 2 1 0 0 1 2 1
12 15 20 22 22 20 19 17 12 9 8 10 14 14 10 8 10 14 17 17 17 18 18 17 16 16 17 17 17 18 18 18 17 18 20 20 21 24 26 29 29 28 27 27 26 25 26 25 24 25 24 22 22 22 22 22 20 19 18 17 15 15 14 13 13 12 11 10 9 8 8 8 8 8 7 7 7 6 6 5 5 5 4 4 4 4 4 3 3 2 2 1 1 1 0 1 1
14 16 18 18 20 21 20 18 13 10 10 10 14 15 11 9 9 12 16 18 18 19 19 18 17 17 18 17 18 19 19 19 19 19 21 21 22 25 28 29 29 28 27 27 27 26 26 26 25 25 25 23 22 22 23 23 21 19 18 17 16 15 15 14 13 12 11 10 9 9 8 8 8 7 7 7 6 6 6 5 5 5 4 4 4 4 5 4 3 4 3 3 3 3 2 1 1
15 18 19 17 19 19 18 17 12 10 12 12 14 16 11 8 10 12 13 14 15 16 16 17 16 15 15 15 17 18 18 19 19 20 20 21 23 27 28 29 29 28 27 27 27 26 26 26 25 26 26 24 23 23 23 23 22 20 18 18 17 16 15 14 13 12 11 10 10 10 9 8 8 7 7 7 6 6 6 5 5 5 4 5 5 5 5 5 5 5 5 4 4 3 3 2 2
16 17 18 18 16 14 13 13 11 11 13 14 18 19 15 10 10 11 12 12 14 14 13 13 14 14 14 14 14 16 16 16 18 20 20 21 24 27 27 28 29 28 27 27 27 27 26 26 26 27 26 25 24 24 24 24 23 21 20 19 19 17 16 15 14 13 13 12 11 10 10 8 8 8 7 7 7 7 7 6 5 5 5 6 6 5 5 6 6 6 5 5 4 4 4 3 3
16 13 14 13 10 9 10 11 13 13 12 14 19 22 19 13 10 11 13 15 16 14 14 14 16 17 16 15 14 14 15 16 17 18 18 20 21 24 26 27 28 29 29 28 28 28 27 27 27 27 27 26 24 24 25 24 24 23 21 20 20 19 18 16 16 15 15 14 12 11 10 10 10 9 8 7 8 8 8 7 6 6 6 6 6 6 6 5 5 6 6 5 5 5 4 4 3
15 13 13 13 10 10 11 11 12 12 12 15 18 18 18 14 10 12 14 16 16 15 15 16 17 18 18 18 17 14 14 16 16 16 17 18 18 19 23 26 28 29 30 30 30 29 28 27 28 28 28 27 25 25 25 25 24 23 22 22 20 20 19 18 17 16 16 15 13 12 12 12 11 10 10 9 9 10 9 8 7 7 7 7 6 6 6 5 4 5 6 5 5 5 5 4 4
16 15 13 12 10 11 11 11 12 12 13 17 17 13 12 11 11 15 17 16 15 15 16 16 14 15 17 18 17 15 15 16 16 18 18 17 18 19 21 26 28 29 31 32 31 30 28 28 29 29 28 28 26 26 26 26 25 24 23 22 21 20 20 19 19 18 17 16 14 14 14 13 12 12 12 11 11 11 10 10 8 8 8 8 7 7 6 5 5 5 5 6 5 5 4 4 4
15 15 14 13 11 11 11 10 11 12 12 16 17 13 10 10 10 15 19 17 14 12 15 16 14 13 13 16 16 16 16 16 17 18 19 19 20 21 23 27 29 30 32 33 32 31 29 28 29 30 29 29 28 27 27 26 26 25 24 23 22 21 20 20 20 19 18 17 16 15 15 14 14 13 13 13 12 12 11 11 10 9 9 9 9 8 7 6 6 6 5 5 5 5 5 5 5
13 13 14 14 12 12 11 10 12 13 12 13 14 11 9 10 9 10 14 16 16 13 14 16 16 16 13 13 16 17 16 18 19 19 20 21 21 22 25 28 30 31 32 33 32 32 31 29 30 30 30 30 29 28 27 27 26 25 25 24 23 22 21 20 20 19 19 18 18 17 15 15 15 14 13 13 13 13 12 12 11 11 11 10 10 10 8 7 7 6 6 6 6 5 5 6 6
10 13 16 15 15 15 11 12 14 14 13 11 11 11 10 12 11 10 12 13 14 14 15 17 19 18 13 9 11 15 16 18 20 19 19 21 21 22 26 29 30 32 32 33 33 33 33 31 30 30 30 29 29 29 28 27 26 25 25 25 25 23 23 22 21 20 20 19 18 17 16 16 16 15 14 14 14 14 13 12 12 11 11 11 11 11 10 8 8 8 7 7 7 6 6 6 6
11 12 15 15 16 16 11 11 13 13 13 11 13 17 14 11 10 11 15 16 14 15 17 19 19 16 12 10 11 14 17 18 19 20 19 20 21 22 26 31 33 34 34 34 35 34 34 32 30 31 30 30 30 29 28 27 26 26 26 26 26 25 24 23 22 21 21 20 19 19 18 17 17 17 15 15 15 15 14 14 13 12 12 12 12 12 11 10 9 8 8 7 7 7 7 8 8
19 13 13 13 13 14 12 11 11 13 13 10 15 20 16 11 9 11 16 18 18 18 19 19 19 16 12 14 13 13 14 16 18 19 18 18 20 22 26 31 33 34 34 34 34 34 33 32 31 31 31 31 30 28 27 26 26 26 26 26 26 25 24 24 22 22 22 21 21 21 20 19 19 19 18 17 17 17 16 15 14 14 14 15 14 14 13 13 12 12 10 9 8 8 9 9 9
23 18 13 12 12 13 13 11 9 12 13 11 15 17 12 10 11 14 17 18 19 20 20 18 17 17 15 14 14 11 12 15 16 17 18 19 21 23 28 31 33 34 33 33 34 34 33 32 31 31 31 30 29 28 27 27 27 27 26 25 26 25 25 25 23 23 23 22 22 22 22 21 21 21 20 20 20 19 18 17 17 17 17 18 18 18 17 16 15 15 13 11 10 10 10 10 9
18 17 16 13 11 11 12 12 12 12 11 10 12 13 10 9 11 15 15 15 16 18 19 17 16 19 17 13 15 14 14 16 16 16 18 20 20 22 28 31 32 32 32 32 33 33 33 32 31 31 31 31 30 29 29 28 28 28 27 26 26 26 26 25 25 24 24 23 23 23 22 22 22 23 23 23 22 21 21 20 20 19 20 20 20 20 19 17 16 15 13 12 10 10 11 10 10
15 15 16 16 12 11 12 14 14 12 11 11 11 11 10 10 11 11 12 12 14 15 16 15 16 18 13 10 14 16 14 15 16 16 17 18 18 20 24 28 30 31 32 33 33 32 33 32 31 31 31 31 31 31 30 30 29 28 28 27 26 27 27 26 26 26 25 25 24 24 23 23 24 25 25 26 25 24 23 22 21 21 20 20 20 19 18 17 17 15 14 12 11 11 11 11 11
Wind_Direction
173 177 180 188 197 214 229 221 321 167 209 154 87 80 94 93 86 89 95 99 89 82 76 70 66 63 76 86 82 66 54 49 42 63 89 123 137 132 133 129 132 132 130 128 129 133 133 137 141 143 142 137 135 136 136 139 143 141 135 132 133 131 130 132 132 128 125 123 122 120 117 113 110 106 102 98 96 95 96 97 95 93 90 88 84 80 77 73 70 69 67 64 65 64 63 61 59
172 180 184 194 192 183 275 220 303 310 138 86 80 90 112 88 68 75 82 84 81 82 83 84 85 88 86 83 89 76 65 63 68 80 98 125 130 125 131 129 131 133 131 131 132 133 133 136 139 141 142 139 136 137 138 141 144 139 134 134 133 133 133 133 133 129 125 125 125 123 120 116 111 106 102 99 97 98 100 99 96 93 90 87 81 78 74 69 66 63 62 61 61 61 61 58 57
176 181 186 197 189 192 277 255 245 188 86 84 99 89 96 93 99 107 85 86 90 94 92 92 82 78 80 74 79 81 82 81 87 96 110 125 125 126 131 127 128 132 132 129 132 133 134 137 137 138 137 136 137 140 141 138 140 139 138 139 137 135 134 133 132 130 128 128 128 126 123 117 112 107 104 100 99 102 104 101 97 93 88 84 80 78 73 68 64 60 57 56 57 56 58 56 53
181 179 194 210 212 220 240 237 229 115 86 90 98 83 77 94 110 101 90 98 102 101 94 92 72 46 68 83 88 87 92 90 94 102 114 122 120 128 131 125 126 130 128 124 127 131 136 140 138 140 141 141 141 143 142 136 138 141 142 143 142 136 131 133 133 132 132 131 130 128 125 119 114 109 106 103 104 108 106 102 96 92 87 83 81 78 74 70 64 61 56 54 54 51 51 50 46
203 192 206 218 245 248 243 235 200 59 64 87 93 95 102 98 99 99 100 108 106 100 99 104 89 70 65 74 90 92 95 93 98 102 109 118 121 129 131 125 126 127 124 122 125 128 137 143 142 143 147 147 145 144 143 140 140 142 142 140 139 135 130 132 135 135 134 134 133 131 128 121 116 112 109 107 109 111 107 102 96 91 85 81 80 78 75 70 65 59 55 54 52 49 45 41 40
226 212 214 218 255 277 275 274 87 62 34 73 104 96 109 109 99 104 104 102 95 88 94 97 93 96 78 66 69 78 99 106 105 106 113 121 124 127 129 127 125 125 124 122 124 124 135 144 144 144 147 146 144 144 142 142 141 141 140 136 134 132 130 134 137 137 138 138 137 134 130 123 118 116 114 112 112 110 107 101 97 91 84 80 77 76 73 68 63 56 54 52 48 46 39 28 28
245 244 216 221 248 260 263 26 64 73 39 57 98 99 106 110 106 109 110 109 101 90 89 93 101 108 96 87 79 78 98 109 112 119 120 123 125 126 128 128 124 125 125 124 124 126 135 141 143 145 147 144 144 143 141 142 140 139 137 134 133 132 134 139 141 141 143 142 139 136 130 126 123 121 119 115 112 109 106 101 99 92 83 80 75 72 70 67 61 56 52 46 43 36 30 20 16
255 272 228 246 254 229 208 60 57 69 67 57 74 91 103 112 122 121 117 114 104 105 104 105 109 102 95 99 94 88 97 103 114 123 123 123 125 125 127 126 126 127 126 126 127 131 137 137 141 145 145 143 144 144 141 139 137 137 138 136 133 135 140 143 145 144 145 143 139 135 131 129 126 126 122 116 114 111 108 104 99 90 84 80 72 69 65 62 57 52 44 35 35 29 24 17 12
231 258 255 257 262 223 89 77 80 74 79 81 81 90 103 119 134 121 111 103 103 118 116 111 110 104 100 99 98 99 103 109 116 121 123 123 124 123 125 126 126 127 125 126 128 132 136 136 139 142 145 146 146 145 142 139 138 139 139 137 135 140 145 146 147 146 145 145 141 136 134 133 130 130 124 119 118 117 114 107 99 89 85 77 65 60 53 49 38 29 26 24 22 20 17 13 12
222 264 267 262 277 23 88 78 85 79 74 82 92 102 112 125 131 117 109 105 111 115 103 97 105 111 109 105 106 110 116 122 122 123 124 125 127 126 128 128 124 124 123 125 128 131 135 137 139 140 144 147 147 147 145 143 142 143 143 139 139 145 148 148 148 148 148 147 144 140 139 139 137 135 128 128 126 124 119 109 102 91 85 75 59 38 23 16 10 359 2 6 5 9 11 12 10
270 251 260 268 351 30 76 83 92 89 86 87 90 103 112 124 132 126 116 111 110 105 106 112 112 114 112 105 101 114 125 130 128 126 126 128 130 130 132 130 125 124 125 128 129 130 134 137 139 140 144 145 146 148 148 148 147 147 146 144 146 148 149 149 149 149 150 148 147 148 148 148 145 143 141 138 135 130 124 119 113 99 84 69 38 360 2 356 348 343 348 353 355 360 6 10 8
273 255 268 284 62 46 58 85 96 95 102 101 95 100 105 125 137 130 123 118 115 117 127 133 122 120 116 108 108 126 133 135 131 128 129 130 130 130 131 128 126 127 128 129 130 132 136 139 141 143 146 147 149 149 150 150 148 148 147 148 150 151 152 153 153 151 151 151 154 157 157 157 154 156 152 147 145 136 134 132 117 99 87 61 10 351 343 332 337 339 343 347 350 353 356 358 358
244 257 265 292 26 40 69 75 93 112 109 94 90 96 110 131 131 128 126 121 131 132 119 125 132 129 117 114 124 135 139 138 134 133 133 132 129 128 128 127 128 130 131 131 132 136 139 142 144 146 149 150 151 151 151 150 148 149 151 153 154 156 158 156 156 153 154 157 161 164 163 163 163 165 162 157 151 145 151 145 123 111 104 53 12 355 324 328 341 342 343 345 346 345 344 347 347
239 253 261 297 13 48 71 78 113 128 100 95 102 110 125 117 112 126 134 134 134 119 109 131 139 125 117 122 135 146 142 140 139 137 135 134 131 129 128 128 129 131 133 133 135 139 142 145 145 148 151 151 151 151 151 150 149 152 155 157 158 159 158 156 156 155 158 161 165 168 166 167 167 170 169 163 158 161 169 155 154 157 143 290 282 309 325 333 341 341 339 338 338 338 336 339 340
244 267 289 322 278 151 89 87 98 99 105 111 116 123 119 91 113 137 140 138 116 107 122 146 143 125 141 147 150 150 143 143 144 139 137 135 132 129 129 129 130 130 132 134 137 140 144 145 145 150 153 153 153 152 152 152 152 155 157 158 159 159 158 157 157 158 161 164 168 170 169 171 172 175 176 174 177 183 168 152 248 235 220 272 292 314 328 328 332 332 330 332 332 335 335 335 339
260 291 282 280 264 200 115 106 79 79 113 116 122 137 124 105 135 124 112 124 116 127 148 152 138 132 160 156 146 144 144 146 145 141 139 136 133 132 131 132 132 129 131 137 139 142 144 145 147 151 155 156 156 154 153 154 156 157 158 159 160 160 161 160 161 164 166 170 174 176 177 177 179 183 182 183 191 191 165 177 235 251 258 287 306 316 324 322 326 325 323 327 328 337 338 337 341
267 281 284 309 277 219 101 110 96 97 110 118 136 149 129 125 137 95 98 127 132 148 152 141 135 148 155 144 141 143 144 146 147 144 141 140 140 140 138 139 139 133 135 141 143 146 147 148 150 153 157 158 156 153 154 156 159 159 161 164 165 167 169 171 173 174 176 180 183 186 187 183 185 191 188 190 201 198 194 212 237 258 274 296 309 313 317 321 326 322 321 324 329 343 340 339 335
249 263 357 297 273 96 89 88 82 111 122 124 144 151 132 137 137 122 144 139 138 152 139 135 141 136 131 131 139 143 146 149 152 150 146 149 150 149 148 148 149 144 143 146 149 151 151 153 155 156 157 157 157 156 155 159 162 162 167 170 173 177 180 182 182 183 184 187 190 193 193 190 186 189 188 193 203 199 225 252 257 271 288 299 305 310 313 323 329 322 323 327 332 345 343 346 320
240 261 96 256 266 73 73 83 82 118 126 126 142 151 135 138 140 157 169 140 145 153 137 147 144 124 123 133 142 146 151 153 156 156 154 157 156 155 154 153 156 154 152 151 154 157 157 158 160 160 158 156 159 160 159 162 165 166 172 175 177 182 185 186 186 187 188 190 193 196 199 198 187 183 189 198 203 205 230 261 284 289 302 308 314 318 316 332 340 332 329 337 343 337 331 341 325
222 221 207 268 325 82 81 76 93 113 126 140 142 149 137 134 143 176 170 139 158 158 143 158 146 135 137 141 146 150 155 157 160 161 159 160 160 161 158 158 160 161 160 155 157 161 162 163 164 163 162 161 162 164 164 167 169 171 176 178 178 182 185 187 189 191 193 192 194 200 203 201 193 191 205 216 219 226 238 268 297 297 301 300 329 329 305 318 326 323 314 331 351 322 312 322 329
224 199 181 254 305 102 115 91 115 109 133 143 136 156 143 137 147 175 169 148 168 160 154 161 148 146 148 148 151 155 158 160 165 164 163 163 164 165 162 163 162 163 164 159 161 164 166 167 166 165 166 167 167 168 169 171 172 174 179 181 181 183 187 189 191 193 194 194 196 202 205 203 207 207 211 226 228 231 244 271 276 271 275 255 308 305 269 309 317 309 295 307 328 305 318 323 316
250 222 186 225 271 62 96 108 126 108 147 139 142 165 133 143 158 172 177 171 173 150 156 158 151 154 153 155 156 158 161 163 169 168 167 166 169 169 164 166 164 163 166 165 166 167 169 169 167 168 170 171 173 174 172 173 174 177 180 182 184 185 188 190 192 195 194 196 199 203 206 206 215 220 216 221 228 237 252 264 261 274 293 254 265 271 252 307 311 300 292 298 310 302 318 318 302
250 243 203 230 247 89 77 137 135 129 174 149 154 153 129 158 163 168 181 180 131 137 150 151 150 157 157 159 160 163 166 167 172 171 170 170 172 172 167 169 167 166 170 168 169 170 172 172 171 172 174 176 178 179 176 176 179 181 182 183 186 188 188 190 194 197 193 195 201 207 212 214 218 223 222 223 235 248 256 263 272 291 294 270 275 291 285 296 284 291 297 297 308 308 318 312 299
237 250 232 235 227 221 229 174 139 153 188 149 157 157 148 177 160 167 177 145 112 132 141 145 147 157 160 162 165 168 168 171 174 172 174 174 175 175 169 170 169 169 172 170 170 174 176 176 175 175 177 179 181 184 183 182 183 184 184 184 189 190 188 192 197 194 188 193 202 210 217 225 227 224 226 235 243 249 267 279 282 284 281 280 299 310 297 304 306 312 317 310 307 310 316 311 304
232 250 253 228 220 223 227 229 154 161 196 149 166 170 157 178 153 170 174 140 141 138 136 143 148 157 163 167 169 169 170 175 175 173 176 175 178 178 172 172 170 170 173 173 173 176 179 179 179 180 180 181 184 186 187 188 187 188 187 187 191 190 193 197 195 192 190 197 201 206 217 229 234 234 234 236 247 254 275 275 273 285 286 285 299 304 306 319 315 314 319 313 312 314 310 305 301
221 230 242 228 223 226 222 241 184 167 201 162 172 175 162 175 150 168 170 139 155 153 140 148 154 161 167 171 172 171 173 177 176 176 177 176 180 180 176 176 174 174 175 175 176 178 179 180 183 184 184 184 186 188 191 192 190 192 191 191 193 190 200 203 195 199 200 202 203 203 212 224 234 243 240 223 249 264 266 269 270 281 289 287 293 309 320 319 313 316 315 307 310 310 306 303 303
240 228 242 231 227 233 220 234 207 179 198 177 181 183 168 171 165 181 162 142 164 160 147 155 160 165 169 171 173 173 176 179 179 179 177 177 181 182 181 179 178 178 176 178 180 179 180 182 185 186 187 187 188 191 193 195 193 195 194 195 197 195 202 204 202 209 207 209 204 196 205 220 229 240 252 224 239 252 255 269 275 269 282 294 296 308 305 301 314 319 313 307 311 309 310 312 308
264 254 260 239 227 239 233 234 217 193 193 180 189 193 172 167 191 197 151 147 170 162 155 161 164 168 169 173 172 173 180 181 180 182 181 180 181 183 185 182 181 179 178 182 182 179 182 185 188 188 188 189 191 195 195 196 196 197 197 198 202 200 202 206 209 212 211 214 200 189 202 214 220 230 249 238 246 265 266 271 274 266 280 299 302 301 297 299 307 306 300 301 311 316 318 313 304
252 244 256 243 227 232 233 228 209 200 182 177 195 199 181 174 204 197 148 153 173 166 164 164 169 170 169 175 172 174 183 182 183 186 184 182 182 185 187 185 183 183 181 184 184 183 185 187 189 189 190 191 193 196 195 197 198 198 200 202 204 202 203 209 213 212 212 214 205 199 200 206 217 224 230 233 246 265 270 269 267 266 282 295 296 289 290 297 299 302 305 311 322 315 308 305 303
238 235 242 242 229 220 221 217 198 196 170 178 200 203 195 185 203 191 148 160 177 170 171 170 174 173 173 179 173 177 184 185 186 187 186 183 185 187 188 188 186 186 183 184 188 188 188 187 188 189 189 192 194 197 197 198 200 201 203 205 206 205 208 212 214 214 214 215 212 206 200 206 216 216 214 226 243 251 261 273 274 273 279 280 282 281 287 301 312 317 318 319 314 301 300 306 308
227 233 233 236 240 215 202 197 188 189 163 180 200 207 212 186 190 185 154 168 180 172 175 174 178 175 176 181 176 180 184 188 189 187 188 185 187 189 189 190 188 189 185 184 189 189 190 188 187 188 188 191 194 196 198 199 201 203 205 208 208 208 212 215 216 216 214 216 218 211 203 204 208 210 213 223 238 252 263 274 273 275 279 275 279 284 289 302 313 312 311 312 305 303 313 312 305
219 229 226 220 238 219 183 180 185 187 167 186 204 216 209 168 176 178 162 176 181 176 178 176 183 180 180 183 180 184 184 188 191 189 190 188 190 191 190 191 189 190 187 185 187 187 191 190 189 190 187 190 192 194 198 199 202 206 209 210 210 211 214 218 218 220 219 217 221 219 206 195 203 212 214 222 234 250 262 265 265 272 284 282 281 300 311 299 302 308 315 317 314 317 314 304 299
214 223 230 215 220 212 174 169 186 196 180 188 206 228 227 152 164 172 166 181 183 180 181 178 186 183 182 187 184 186 184 186 192 192 192 190 191 191 190 191 190 190 187 185 185 186 190 189 191 193 190 191 192 192 196 199 202 206 210 211 212 213 216 219 219 222 224 219 219 221 210 198 202 207 207 222 232 243 253 257 266 268 271 279 294 349 322 315 327 331 334 326 320 318 304 292 292
209 213 228 223 219 215 183 168 190 203 190 189 204 224 238 160 157 169 171 183 186 184 185 181 186 186 184 189 189 190 187 187 192 194 193 191 191 191 190 191 190 191 187 187 186 185 190 189 190 194 193 192 191 192 194 198 202 205 210 212 212 215 219 221 221 222 224 224 220 219 215 202 199 198 203 225 232 238 249 257 270 267 239 235 319 301 300 331 347 341 335 324 317 312 301 296 297
214 209 215 221 223 221 204 182 189 202 193 192 204 217 231 172 153 170 177 185 191 188 188 185 185 187 187 191 194 193 190 191 193 195 195 192 192 191 190 191 191 191 189 188 187 185 190 190 190 193 194 192 192 193 193 198 202 205 210 212 213 217 221 222 224 224 223 225 222 215 210 202 201 198 202 223 229 236 250 254 258 246 188 192 253 282 306 335 350 343 324 311 303 297 295 300 301
225 220 214 216 224 226 218 194 177 194 202 200 204 210 221 192 160 176 183 187 194 191 190 190 188 189 190 194 198 196 195 195 193 195 196 192 192 191 190 190 190 191 191 188 187 187 189 191 190 192 194 193 191 193 195 198 202 205 209 212 214 216 219 222 223 225 225 224 220 211 207 206 208 203 203 220 228 238 253 250 231 205 189 209 229 279 325 352 359 331 306 299 293 289 289 287 289
234 229 217 216 227 228 221 207 175 185 208 208 206 208 214 210 184 181 188 192 196 196 195 193 191 192 193 196 199 199 199 198 192 194 196 193 192 191 189 190 190 191 191 188 188 189 190 191 192 191 193 193 192 194 197 199 201 204 207 212 214 215 217 220 222 224 225 223 216 207 210 214 206 200 213 227 227 236 244 229 208 198 209 221 223 265 353 19 343 307 291 291 286 288 293 284 288
237 236 223 213 225 228 222 214 180 179 202 209 211 213 211 213 201 186 189 198 199 199 199 195 195 195 195 198 201 201 199 200 195 191 195 194 192 191 190 191 191 190 191 190 190 191 191 192 194 193 192 194 195 196 198 201 203 205 208 212 216 217 218 220 222 225 225 223 216 204 211 221 206 200 223 232 225 231 226 206 202 200 209 220 213 228 327 298 303 296 283 287 286 285 288 293 320
235 239 234 217 218 224 224 213 181 175 195 209 214 219 216 213 209 196 191 199 204 203 202 198 197 198 198 199 201 202 200 200 199 192 193 195 194 192 191 191 193 191 191 191 191 191 192 194 195 194 193 194 197 197 198 202 204 207 210 213 217 220 220 221 225 227 227 225 218 208 208 215 207 204 219 222 218 223 212 197 198 200 205 208 202 212 255 275 293 285 271 280 291 279 253 202 21
232 234 235 229 218 219 226 204 171 170 188 214 220 219 222 219 212 206 200 199 202 204 206 204 200 201 203 203 200 202 202 200 201 196 192 195 195 193 191 191 193 192 192 191 191 191 192 194 195 194 195 195 196 199 200 202 204 207 211 214 218 222 222 223 223 224 226 224 217 211 208 206 206 208 208 206 208 212 203 197 199 200 200 201 199 207 244 276 283 258 256 268 291 287 259 160 77
230 231 232 234 220 217 223 187 163 186 203 217 230 223 222 223 215 210 204 201 201 203 208 209 205 202 203 206 203 202 204 202 202 200 195 195 196 194 192 191 192 193 193 192 192 192 192 194 195 195 196 196 197 199 200 201 202 205 208 213 216 219 222 223 221 221 222 222 220 218 217 215 215 216 211 210 211 209 204 200 198 200 201 202 206 220 247 281 271 248 250 248 271 299 305 325 81
227 228 229 237 231 222 225 199 176 206 220 210 221 230 224 220 220 219 210 206 204 202 208 211 209 205 202 206 206 202 204 203 202 202 199 197 197 196 193 191 192 194 194 194 194 193 193 193 193 194 196 197 198 198 198 199 200 203 205 208 211 210 214 217 218 220 219 220 223 222 220 219 218 218 215 215 214 209 204 198 199 207 210 210 217 242 265 263 244 238 230 234 261 307 324 318 117
226 220 219 233 241 236 234 223 200 210 222 205 212 230 237 221 217 219 220 218 210 202 207 212 210 208 207 206 205 203 203 202 202 202 201 199 198 197 195 194 194 195 194 194 194 195 194 193 192 193 194 197 198 198 197 197 199 202 204 207 210 209 211 213 215 220 220 218 219 215 212 207 204 211 211 209 206 200 194 191 200 208 215 218 214 234 257 244 225 202 195 216 296 34 331 296 273
229 220 215 222 236 240 240 239 228 217 217 211 215 227 239 234 219 217 220 221 215 208 207 210 211 211 212 211 206 202 202 202 200 200 202 202 199 198 198 196 196 197 195 193 194 195 194 193 192 191 193 196 197 197 195 196 198 200 202 207 211 213 216 215 213 217 218 215 213 207 205 199 196 204 206 200 195 192 190 191 200 206 213 217 210 221 237 232 203 166 170 167 141 162 156 281 304
230 230 228 221 225 235 243 245 237 224 222 221 219 222 234 239 225 220 221 219 218 213 206 207 210 210 211 216 215 206 201 201 201 199 200 203 201 199 198 196 197 197 195 193 193 193 193 193 191 190 192 195 195 194 194 196 197 199 201 204 209 213 216 218 215 214 215 212 209 204 201 199 198 202 203 200 196 194 195 196 200 206 212 210 208 219 212 193 180 174 175 171 171 170 147 170 222
231 236 242 236 224 222 232 243 244 233 232 231 223 219 230 243 226 218 221 219 218 216 209 204 206 211 210 215 225 219 206 200 200 200 198 201 202 200 197 196 196 197 195 194 193 193 192 192 191 190 192 193 193 192 193 196 197 198 201 203 208 212 212 216 215 211 209 206 205 203 200 203 207 206 202 199 200 198 195 197 201 207 210 205 204 208 195 178 177 184 186 183 181 174 164 182 199
229 233 240 244 238 226 226 236 243 238 232 229 226 222 225 238 230 217 220 220 215 215 215 202 195 207 210 208 223 232 222 206 199 198 196 197 199 198 196 195 194 195 195 194 193 193 192 191 191 191 192 193 192 192 193 196 198 199 202 204 207 211 209 210 211 208 206 201 201 204 203 206 212 211 205 196 196 198 195 198 205 205 199 196 196 196 193 186 180 178 182 187 187 187 187 187 198
225 227 231 235 241 240 233 229 231 237 237 228 225 223 225 233 228 216 217 220 216 210 214 211 197 198 204 203 207 222 232 221 205 199 194 192 195 195 195 194 192 193 195 194 193 193 193 192 191 191 193 194 192 192 194 197 200 201 203 205 206 209 209 209 210 209 207 203 201 202 203 206 209 209 206 198 195 195 193 195 201 201 194 190 192 192 194 198 186 173 174 189 194 194 202 199 203
217 221 224 222 221 225 224 223 224 229 237 235 228 225 228 234 231 227 224 221 218 208 209 217 206 195 196 199 194 196 222 226 212 204 196 190 191 192 192 191 190 192 194 195 194 193 194 193 192 191 193 193 191 192 195 198 202 203 203 205 206 207 208 209 210 209 208 205 199 199 203 204 205 204 203 200 197 194 189 191 195 196 192 189 191 190 189 194 194 182 181 193 199 199 206 207 208
210 212 217 216 215 219 216 219 226 226 230 233 232 234 238 235 228 229 229 225 221 209 205 216 221 207 193 190 188 186 205 220 215 205 196 191 190 189 190 190 189 192 194 194 194 194 194 193 192 192 191 192 191 192 195 197 201 203 202 203 204 205 206 208 210 210 208 204 198 200 203 202 202 202 201 200 198 193 189 188 189 190 189 187 188 190 188 191 196 196 196 201 204 204 210 213 218
210 212 218 218 215 223 220 214 223 230 232 229 226 229 234 234 228 219 217 222 225 212 204 210 223 223 193 177 184 188 197 213 214 205 197 193 190 187 189 189 189 192 193 194 195 194 194 194 193 192 190 190 190 191 194 197 200 202 201 202 202 203 204 206 209 210 208 205 201 201 202 202 202 200 200 202 198 192 188 187 186 186 186 184 185 187 190 192 197 202 206 211 213 210 214 221 225
205 208 222 222 214 225 236 232 228 231 237 232 226 225 222 231 239 214 204 215 220 214 210 211 217 222 204 180 185 190 197 208 208 204 199 194 190 186 188 189 189 191 192 193 194 193 194 195 193 192 191 190 189 191 193 196 198 200 201 202 202 201 202 203 207 208 207 207 203 201 200 201 201 198 199 201 198 193 190 188 187 185 184 184 183 186 192 194 196 204 211 218 224 220 220 228 231
197 204 222 222 218 227 241 243 235 234 238 232 230 235 223 220 231 218 202 209 215 213 217 222 224 222 208 189 194 196 201 208 204 199 197 193 190 188 188 189 189 190 191 192 192 192 193 194 192 192 190 189 190 191 193 194 195 198 200 201 201 200 201 202 205 206 205 206 203 200 198 197 198 197 196 196 196 194 191 188 187 185 184 184 184 186 193 196 197 204 212 220 228 227 225 229 233
212 207 215 215 222 229 236 240 233 232 238 231 230 238 230 216 217 214 210 207 207 215 220 226 232 227 202 193 212 209 204 207 201 197 196 192 191 189 188 190 190 189 189 190 189 189 191 192 191 190 189 190 190 190 192 193 193 196 199 201 201 200 201 203 205 205 204 203 201 198 197 196 195 196 194 191 192 192 190 188 186 184 184 184 185 188 192 194 196 203 212 223 230 230 229 230 230
230 230 211 205 217 221 223 232 230 231 235 230 233 237 233 223 212 213 218 210 202 211 219 223 229 228 202 188 205 213 210 211 202 195 195 193 192 191 189 189 189 189 188 188 187 187 189 191 190 190 190 191 191 191 192 192 193 197 200 201 200 199 201 204 205 204 203 202 201 199 198 196 193 193 191 188 188 189 188 185 185 185 184 183 184 188 191 192 193 195 201 212 221 226 231 234 231
227 237 222 209 217 219 220 224 229 236 237 231 232 235 234 229 215 209 217 213 205 212 220 219 222 230 217 190 186 198 210 215 207 196 195 196 195 193 192 190 189 188 187 186 186 187 189 191 190 192 191 190 190 190 190 191 194 198 199 199 198 197 200 202 203 204 202 201 201 200 199 198 194 191 189 186 186 187 185 184 186 185 185 185 185 187 189 190 192 193 195 199 208 217 225 232 234
211 225 225 216 214 219 222 221 221 230 240 238 233 233 232 234 224 208 205 209 211 216 220 210 212 230 227 192 177 187 202 209 205 200 197 197 197 195 193 193 190 187 186 186 187 189 191 191 191 192 191 189 190 190 190 192 194 197 198 196 195 196 199 200 201 202 201 199 199 199 200 200 197 191 186 185 185 186 185 185 187 186 186 189 190 187 185 187 191 195 198 200 203 211 218 226 232
206 210 221 223 217 213 219 221 218 218 233 242 241 241 228 222 231 214 197 211 219 218 218 205 206 224 229 208 192 186 191 201 200 202 202 196 197 197 194 193 191 189 187 187 188 189 191 192 192 192 191 191 192 191 191 192 194 196 197 195 195 195 197 199 200 201 200 198 198 198 199 200 200 194 186 184 185 185 184 185 186 187 188 193 193 187 184 184 187 192 198 202 203 208 216 223 230